Flag for U.S.A. Weather past 2 weeks in San Buenaventura, California, U.S.A.

Now
73 °F

Sunny.


Feels Like: 74 °F
Forecast: 65 / 81 °F
Wind: 8 mph from West

Location: Oxnard Airport

Current Time: Aug 28, 2015 at 9:06:25 PM

Latest Report: Aug 28, 2015 at 7:51 PM


Visibility: 10 mi

Pressure: 29.81 "Hg

Humidity: 76%

Dew point: 65 °F

Location of San BuenaventuraLocation

Historic Weather in San Buenaventura — Graph

°F

San Buenaventura temperature yesterday

Maximum temperature yesterday: 83 °F (at 2:51 PM)
Minimum temperature yesterday: 68 °F (at 5:51 AM)
Average temperature yesterday: 75 °F

Past Weeks' High & Low Weather Summary

 TemperatureHumidityPressure
High86 °F (Aug 28, 12:51 PM)100% (Aug 17, 12:51 AM)29.98 "Hg (Aug 17, 12:51 AM)
Low62 °F (Aug 15, 6:51 AM)40% (Aug 28, 12:51 PM)29.80 "Hg (Aug 28, 6:51 PM)
Average70 °F78%29.90 "Hg
* Reported Aug 13 6:51 PM — Aug 28 6:51 PM, San Buenaventura, Weather by CustomWeather, © 2015

Note: Actual official high and low records may vary slightly from our data, if they occured in-between our weather recording intervals... More about our weather records

Advertising

San Buenaventura weather history for previous 24 hours

 ConditionsComfort  
Time TempWeatherWind HumidityBarometerVisibility
6:51 PM
Fri, Aug 28
77 °FSunny.8 mph62%29.80 "Hg10 mi
5:51 PM79 °FSunny.12 mph62%29.81 "Hg10 mi
4:51 PM80 °FSunny.14 mph69%29.82 "Hg9 mi
3:51 PM84 °FSunny.12 mph53%29.83 "Hg10 mi
2:51 PM86 °FSunny.9 mph43%29.85 "Hg10 mi
1:51 PM86 °FSunny.8 mph40%29.86 "Hg10 mi
12:51 PM86 °FSunny.9 mph40%29.87 "Hg10 mi
11:51 AM85 °FSunny.7 mph43%29.88 "Hg10 mi
10:51 AM81 °FSunny.6 mph53%29.90 "Hg10 mi
9:51 AM79 °FSunny.6 mph60%29.90 "Hg10 mi
8:51 AM76 °FSunny.3 mph56%29.90 "Hg9 mi
7:51 AM73 °FSunny.No wind59%29.89 "Hg10 mi
6:51 AM67 °FClear.No wind76%29.87 "Hg9 mi
5:51 AM67 °FClear.3 mph76%29.86 "Hg10 mi
4:51 AM67 °FClear.3 mph76%29.87 "Hg10 mi
3:51 AM69 °FClear.3 mph84%29.88 "Hg9 mi
2:51 AM71 °FClear.6 mph84%29.87 "Hg9 mi
1:51 AM73 °FClear.3 mph84%29.88 "Hg8 mi
12:51 AM72 °FClear.No wind84%29.89 "Hg9 mi
11:51 PM
Thu, Aug 27
73 °FClear.6 mph79%29.88 "Hg9 mi
10:51 PM72 °FClear.No wind84%29.88 "Hg9 mi
9:51 PM71 °FClear.3 mph87%29.88 "Hg8 mi
Weather by CustomWeather, © 2015

See weather overviewHow to use our weather pages